Language: 


Des rapports , des résumés tant et plus, au choix de chacun....


Données Historiques de Météogheer
Journalier Rapport pour Janvier 29, 2018 Unitée:  Impériale    Métrique   Les deux
Suivant Jour »
Journalier Hebdomadaire Mensuel Annuel Sur mesure
  Max: Min: Moyenne:
Température: 53.1 °F 39.9 °F 50.5 °F
Point de rosée: 51.8 °F 39.2 °F 48.4 °F
Humidité: 98% 80% 91%
Vent: 26.8mph 0mph 12.6mph
Rafales: 32.2mph - -
Vent- - WSW
Pression: 30.4 in 30.2 in -
Pluie: 0.02 in    
Historical Graphs
 
 
Données tabulaires pour Janvier 29, 2018
Heure Température Point de rosée Pression Vent Vent Rafales Humidité Pluie Taux (Horaire) Conditions
00:02 51.8 °F 51.8 °F 30.4 in WSW 14.8 mph 16.8 mph 96% 0 in
00:07 52 °F 51.8 °F 30.4 in West 10.1 mph 17.2 mph 96% 0 in
00:12 52 °F 50 °F 30.4 in WSW 13.6 mph 17.2 mph 95% 0 in
00:17 52 °F 50 °F 30.4 in WSW 10.5 mph 19.7 mph 95% 0 in
00:22 52.2 °F 50 °F 30.4 in WSW 11.4 mph 19.7 mph 94% 0 in
00:27 52.2 °F 50 °F 30.4 in West 13.4 mph 19.2 mph 94% 0 in
00:32 52.2 °F 50 °F 30.4 in WSW 13.2 mph 17.7 mph 94% 0 in
00:37 52.2 °F 50 °F 30.4 in WSW 15.4 mph 17.7 mph 93% 0 in
00:42 52.2 °F 50 °F 30.4 in West 15.9 mph 19.7 mph 93% 0 in
00:47 52.2 °F 50 °F 30.4 in WSW 9.8 mph 19.7 mph 93% 0 in
00:52 52.2 °F 50 °F 30.4 in WSW 16.3 mph 17.7 mph 93% 0 in
00:57 52.2 °F 50 °F 30.4 in WSW 14.1 mph 19.5 mph 93% 0 in
01:03 52.2 °F 50 °F 30.4 in West 12.8 mph 19.5 mph 93% 0 in
01:08 52.3 °F 50 °F 30.4 in WSW 16.8 mph 20.8 mph 93% 0 in
01:13 52.3 °F 50 °F 30.4 in WSW 13.2 mph 20.8 mph 93% 0 in
01:18 52.2 °F 50 °F 30.4 in WSW 12.5 mph 17.4 mph 93% 0 in
01:23 52.2 °F 50 °F 30.4 in West 19.2 mph 19.2 mph 93% 0 in
01:28 52 °F 50 °F 30.4 in WSW 19.5 mph 19.5 mph 93% 0 in
01:33 52 °F 50 °F 30.4 in SW 10.1 mph 19.5 mph 93% 0 in
01:38 52 °F 50 °F 30.4 in WSW 15.2 mph 19.5 mph 93% 0 in
01:43 51.8 °F 50 °F 30.4 in WSW 17.7 mph 17.7 mph 93% 0 in
01:48 51.8 °F 50 °F 30.4 in West 14.1 mph 19.2 mph 93% 0 in
01:53 51.8 °F 50 °F 30.4 in WSW 10.5 mph 19.2 mph 92% 0 in
01:58 51.8 °F 50 °F 30.4 in WSW 13.2 mph 15.4 mph 92% 0 in
02:03 51.6 °F 50 °F 30.4 in WSW 9.8 mph 17 mph 93% 0 in
02:08 51.6 °F 50 °F 30.4 in WSW 10.5 mph 17 mph 93% 0 in
02:13 51.6 °F 50 °F 30.4 in WSW 14.8 mph 19.7 mph 92% 0 in
02:18 51.6 °F 50 °F 30.4 in WSW 12.5 mph 19.7 mph 92% 0 in
02:23 51.6 °F 50 °F 30.4 in WSW 14.5 mph 17.7 mph 92% 0 in
02:29 51.6 °F 50 °F 30.4 in WSW 13.9 mph 22.1 mph 92% 0 in
02:34 51.4 °F 48.2 °F 30.4 in WSW 12.5 mph 22.1 mph 92% 0 in
02:39 51.4 °F 48.2 °F 30.4 in WSW 13 mph 19.9 mph 92% 0 in
02:44 51.4 °F 50 °F 30.4 in West 15.2 mph 22.4 mph 93% 0 in
02:49 51.4 °F 50 °F 30.4 in WSW 16.8 mph 22.4 mph 93% 0 in
02:54 51.4 °F 50 °F 30.4 in West 12.8 mph 17.7 mph 93% 0 in
02:59 51.4 °F 50 °F 30.4 in West 14.8 mph 17.7 mph 93% 0 in
03:04 51.4 °F 50 °F 30.4 in WSW 7.6 mph 16.3 mph 93% 0 in
03:09 51.4 °F 50 °F 30.4 in West 16.1 mph 17.4 mph 93% 0 in
03:14 51.4 °F 50 °F 30.4 in WSW 12.8 mph 17.7 mph 93% 0 in
03:19 51.4 °F 50 °F 30.4 in West 15.4 mph 19.5 mph 94% 0 in
03:24 51.4 °F 50 °F 30.4 in WSW 14.8 mph 19.5 mph 94% 0 in
03:29 51.4 °F 50 °F 30.4 in West 8.1 mph 18.1 mph 93% 0 in
03:34 51.4 °F 50 °F 30.4 in WSW 17.2 mph 23.9 mph 93% 0 in
03:39 51.6 °F 50 °F 30.4 in WSW 19.7 mph 23.9 mph 93% 0 in
03:44 51.6 °F 50 °F 30.4 in West 15.4 mph 22.6 mph 93% 0 in
03:49 51.6 °F 50 °F 30.4 in WSW 18.1 mph 23.3 mph 92% 0 in
03:54 51.6 °F 50 °F 30.4 in WSW 14.5 mph 23.3 mph 92% 0 in
03:59 51.6 °F 50 °F 30.4 in WSW 17.7 mph 23.3 mph 91% 0 in
04:04 51.8 °F 50 °F 30.4 in West 12.5 mph 19.7 mph 91% 0 in
04:09 51.8 °F 48.2 °F 30.4 in WSW 15.7 mph 22.4 mph 90% 0 in
04:14 51.8 °F 48.2 °F 30.4 in West 10.7 mph 22.4 mph 90% 0 in
04:19 51.8 °F 48.2 °F 30.4 in WSW 16.1 mph 19.2 mph 90% 0 in
04:24 51.8 °F 48.2 °F 30.4 in WSW 10.5 mph 21.5 mph 90% 0 in
04:29 51.6 °F 50 °F 30.4 in WSW 10.5 mph 21.5 mph 91% 0 in
04:34 51.6 °F 50 °F 30.4 in West 11 mph 19 mph 92% 0 in
04:39 51.6 °F 50 °F 30.4 in WSW 18.1 mph 19.9 mph 92% 0 in
04:44 51.6 °F 50 °F 30.4 in WSW 12.8 mph 25.3 mph 92% 0 in
04:49 51.6 °F 50 °F 30.4 in West 23.7 mph 25.3 mph 92% 0 in
04:54 51.6 °F 50 °F 30.4 in West 19.7 mph 23.7 mph 92% 0 in
04:59 51.6 °F 50 °F 30.4 in WSW 15.7 mph 23.9 mph 92% 0 in
05:05 51.6 °F 50 °F 30.4 in WSW 17 mph 25.3 mph 91% 0 in
05:10 51.6 °F 50 °F 30.4 in WSW 17.2 mph 25.3 mph 91% 0 in
05:15 51.8 °F 48.2 °F 30.4 in West 10.5 mph 27.3 mph 89% 0 in
05:20 51.8 °F 48.2 °F 30.4 in West 24.6 mph 27.3 mph 89% 0 in
05:25 51.8 °F 48.2 °F 30.4 in West 20.4 mph 25.5 mph 89% 0 in
05:30 51.8 °F 48.2 °F 30.4 in WSW 16.8 mph 25.1 mph 88% 0 in
05:35 51.8 °F 48.2 °F 30.4 in WSW 19.7 mph 24.2 mph 89% 0 in
05:40 51.6 °F 48.2 °F 30.4 in WSW 13.6 mph 22.4 mph 90% 0 in
05:45 51.6 °F 50 °F 30.4 in WSW 16.6 mph 21.3 mph 91% 0 in
05:50 51.6 °F 50 °F 30.4 in WSW 12.5 mph 21.3 mph 91% 0 in
05:55 51.4 °F 48.2 °F 30.4 in WSW 17.4 mph 18.1 mph 92% 0 in
06:00 51.3 °F 50 °F 30.4 in WSW 15.4 mph 19.5 mph 93% 0 in
06:05 51.3 °F 50 °F 30.4 in WSW 11 mph 19.9 mph 94% 0 in
06:10 51.1 °F 50 °F 30.4 in West 13.4 mph 19.9 mph 94% 0 in
06:15 51.1 °F 50 °F 30.4 in WSW 9.6 mph 17.2 mph 95% 0 in
06:20 51.1 °F 50 °F 30.4 in WSW 12.3 mph 17.2 mph 95% 0 in
06:25 51.1 °F 50 °F 30.4 in West 11 mph 17.9 mph 94% 0 in
06:30 51.3 °F 50 °F 30.4 in West 12.1 mph 17.9 mph 94% 0 in
06:35 51.3 °F 50 °F 30.4 in WSW 11.2 mph 17.4 mph 93% 0 in
06:40 51.3 °F 50 °F 30.4 in WSW 14.5 mph 19.7 mph 93% 0 in
06:45 51.3 °F 50 °F 30.4 in WSW 7.6 mph 19.7 mph 94% 0 in
06:50 51.1 °F 50 °F 30.4 in West 17.9 mph 17.9 mph 94% 0 in
06:55 51.1 °F 50 °F 30.4 in WSW 13.4 mph 21.9 mph 95% 0 in
07:00 50.9 °F 50 °F 30.4 in WSW 13 mph 21.9 mph 95% 0 in
07:06 50.9 °F 50 °F 30.4 in West 16.3 mph 17.4 mph 94% 0 in
07:11 51.1 °F 50 °F 30.4 in WSW 17.2 mph 17.4 mph 94% 0 in
07:16 51.1 °F 50 °F 30.4 in WSW 9.6 mph 19.2 mph 94% 0 in
07:21 50.9 °F 50 °F 30.4 in WSW 12.1 mph 19.2 mph 94% 0 in
07:26 50.9 °F 50 °F 30.4 in West 22.6 mph 32.2 mph 93% 0 in
07:31 51.1 °F 48.2 °F 30.4 in WSW 12.8 mph 32.2 mph 89% 0 in
07:36 51.1 °F 48.2 °F 30.4 in West 17 mph 27.3 mph 89% 0 in
07:41 51.1 °F 48.2 °F 30.4 in West 12.5 mph 21 mph 89% 0 in
07:46 51.1 °F 48.2 °F 30.4 in WSW 9.6 mph 21.9 mph 89% 0 in
07:51 51.1 °F 48.2 °F 30.4 in WSW 22.1 mph 26.4 mph 89% 0 in
07:56 51.3 °F 48.2 °F 30.4 in SW 13.9 mph 26.4 mph 87% 0 in
08:01 51.3 °F 48.2 °F 30.3 in WSW 17.4 mph 25.9 mph 86% 0 in
08:06 51.3 °F 48.2 °F 30.3 in SW 21.9 mph 25.7 mph 86% 0 in
08:11 51.3 °F 48.2 °F 30.3 in West 15.2 mph 25.7 mph 87% 0 in
08:16 51.3 °F 48.2 °F 30.3 in WSW 15.7 mph 23.5 mph 86% 0 in
08:21 51.3 °F 48.2 °F 30.3 in SSW 15.4 mph 23.3 mph 87% 0 in
08:26 51.3 °F 48.2 °F 30.3 in WSW 15.4 mph 23.3 mph 86% 0 in
08:31 51.3 °F 48.2 °F 30.3 in WSW 12.5 mph 22.6 mph 86% 0 in
08:36 51.3 °F 48.2 °F 30.3 in WSW 6 mph 24.4 mph 85% 0 in
08:41 51.3 °F 48.2 °F 30.3 in WSW 16.1 mph 24.4 mph 85% 0 in
08:46 51.1 °F 48.2 °F 30.4 in West 15.4 mph 22.1 mph 85% 0 in
08:51 51.3 °F 48.2 °F 30.4 in WSW 16.6 mph 21.5 mph 85% 0 in
08:56 51.3 °F 48.2 °F 30.4 in West 12.1 mph 23.7 mph 85% 0 in
09:01 51.3 °F 48.2 °F 30.4 in West 17 mph 24.2 mph 85% 0 in
09:06 51.1 °F 48.2 °F 30.4 in WSW 13.6 mph 24.2 mph 85% 0 in
09:11 51.1 °F 48.2 °F 30.4 in WSW 9.8 mph 19.5 mph 85% 0 in
09:16 51.1 °F 48.2 °F 30.4 in West 19.9 mph 19.9 mph 85% 0 in
09:21 51.3 °F 48.2 °F 30.4 in West 17.7 mph 19.9 mph 85% 0 in
09:26 51.3 °F 48.2 °F 30.4 in WSW 10.7 mph 21.3 mph 85% 0 in
09:31 51.3 °F 48.2 °F 30.3 in West 18.6 mph 21.3 mph 85% 0 in
09:36 51.3 °F 48.2 °F 30.3 in West 14.8 mph 26.2 mph 85% 0 in
09:42 51.3 °F 48.2 °F 30.3 in West 12.1 mph 26.2 mph 85% 0 in
09:47 51.4 °F 48.2 °F 30.3 in West 16.1 mph 25.1 mph 85% 0 in
09:52 51.4 °F 48.2 °F 30.3 in West 10.1 mph 23.5 mph 85% 0 in
09:57 51.4 °F 48.2 °F 30.3 in WSW 15.4 mph 21.5 mph 85% 0 in
10:02 51.4 °F 48.2 °F 30.3 in WSW 11 mph 21.3 mph 85% 0 in
10:07 51.4 °F 48.2 °F 30.3 in WSW 18.6 mph 21.3 mph 85% 0 in
10:12 51.4 °F 48.2 °F 30.3 in West 15.7 mph 22.1 mph 85% 0 in
10:17 51.4 °F 48.2 °F 30.3 in WSW 10.1 mph 22.1 mph 85% 0 in
10:22 51.4 °F 48.2 °F 30.3 in WSW 12.8 mph 18.1 mph 85% 0 in
10:28 51.4 °F 48.2 °F 30.3 in West 15.9 mph 20.1 mph 85% 0 in
10:33 51.6 °F 48.2 °F 30.3 in WSW 12.3 mph 24.6 mph 85% 0 in
10:38 51.6 °F 48.2 °F 30.3 in WSW 18.6 mph 24.6 mph 85% 0 in
10:43 51.6 °F 48.2 °F 30.3 in WSW 12.5 mph 22.6 mph 85% 0 in
10:48 51.6 °F 48.2 °F 30.3 in WSW 26.4 mph 26.4 mph 85% 0 in
10:53 51.8 °F 48.2 °F 30.3 in WSW 19.9 mph 26.4 mph 84% 0 in
10:58 51.8 °F 48.2 °F 30.3 in WSW 25.7 mph 26.4 mph 84% 0 in
11:03 51.8 °F 48.2 °F 30.3 in West 24.6 mph 25.7 mph 84% 0 in
11:08 51.8 °F 46.4 °F 30.3 in WSW 16.8 mph 25.7 mph 83% 0 in
11:13 51.6 °F 48.2 °F 30.3 in SSW 12.1 mph 23.7 mph 84% 0 in
11:18 51.6 °F 48.2 °F 30.3 in West 23.5 mph 24.6 mph 84% 0 in
11:23 51.6 °F 48.2 °F 30.3 in WSW 17.2 mph 24.6 mph 84% 0 in
11:28 51.8 °F 48.2 °F 30.3 in West 22.1 mph 23.5 mph 84% 0 in
11:33 51.8 °F 48.2 °F 30.3 in West 16.6 mph 27.5 mph 84% 0 in
11:38 51.8 °F 46.4 °F 30.3 in WSW 17.4 mph 27.5 mph 83% 0 in
11:43 52 °F 46.4 °F 30.3 in West 10.3 mph 26.2 mph 81% 0 in
11:48 52 °F 46.4 °F 30.3 in WSW 23.3 mph 26.2 mph 81% 0 in
11:53 52 °F 46.4 °F 30.3 in West 15.4 mph 26.4 mph 80% 0 in
11:58 52 °F 46.4 °F 30.3 in WSW 22.6 mph 26.4 mph 81% 0 in
12:03 51.8 °F 48.2 °F 30.3 in WSW 19.2 mph 25.9 mph 84% 0 in
12:08 51.4 °F 48.2 °F 30.3 in West 15.9 mph 25.9 mph 86% 0 in
12:13 51.3 °F 48.2 °F 30.3 in SSW 12.3 mph 23.7 mph 88% 0 in
12:18 51.3 °F 48.2 °F 30.3 in West 17.7 mph 23.7 mph 89% 0 in
12:23 51.4 °F 48.2 °F 30.3 in West 15.7 mph 19.9 mph 89% 0 in
12:28 51.4 °F 48.2 °F 30.3 in WSW 14.5 mph 22.6 mph 89% 0 in
12:33 51.4 °F 48.2 °F 30.4 in West 16.8 mph 22.8 mph 89% 0 in
12:38 51.1 °F 48.2 °F 30.4 in West 13 mph 22.8 mph 90% 0 in
12:43 50.9 °F 48.2 °F 30.3 in WSW 19.9 mph 22.6 mph 91% 0 in
12:48 50.7 °F 48.2 °F 30.3 in West 17 mph 22.6 mph 92% 0 in
12:53 50.7 °F 48.2 °F 30.3 in West 15.9 mph 23.3 mph 93% 0 in
12:59 50.7 °F 48.2 °F 30.3 in WSW 14.8 mph 23.3 mph 93% 0 in
13:04 51.1 °F 48.2 °F 30.3 in WSW 15.7 mph 22.4 mph 92% 0 in
13:09 51.1 °F 48.2 °F 30.3 in WSW 17 mph 21 mph 92% 0 in
13:14 51.3 °F 48.2 °F 30.3 in WSW 23.5 mph 25.1 mph 91% 0 in
13:19 51.3 °F 48.2 °F 30.3 in WSW 15.9 mph 25.1 mph 89% 0 in
13:24 51.4 °F 48.2 °F 30.3 in West 17.4 mph 21.3 mph 88% 0 in
13:29 51.6 °F 48.2 °F 30.3 in West 12.8 mph 24.6 mph 86% 0 in
13:34 51.8 °F 48.2 °F 30.3 in WSW 13 mph 24.6 mph 85% 0 in
13:39 52 °F 48.2 °F 30.3 in West 17.4 mph 23.5 mph 85% 0 in
13:44 52 °F 48.2 °F 30.3 in WSW 14.5 mph 22.8 mph 84% 0 in
13:49 52.2 °F 48.2 °F 30.3 in WSW 22.8 mph 22.8 mph 84% 0 in
13:54 52.2 °F 48.2 °F 30.3 in WSW 12.3 mph 22.8 mph 83% 0 in
13:59 52.3 °F 48.2 °F 30.3 in West 13.4 mph 19.9 mph 83% 0 in
14:04 52.3 °F 48.2 °F 30.3 in WSW 16.1 mph 19.9 mph 83% 0 in
14:09 52.5 °F 48.2 °F 30.3 in WSW 12.8 mph 23.5 mph 82% 0 in
14:14 52.7 °F 48.2 °F 30.3 in West 13.2 mph 23.5 mph 83% 0 in
14:19 52.7 °F 48.2 °F 30.3 in WSW 16.6 mph 22.6 mph 83% 0 in
14:25 52.7 °F 48.2 °F 30.3 in WSW 26.6 mph 26.6 mph 83% 0 in
14:30 52.5 °F 48.2 °F 30.3 in WSW 22.4 mph 26.6 mph 83% 0 in
14:35 52.7 °F 48.2 °F 30.3 in WSW 23.3 mph 25.9 mph 83% 0 in
14:40 52.7 °F 48.2 °F 30.3 in WSW 19.7 mph 25.3 mph 84% 0 in
14:45 52.7 °F 48.2 °F 30.3 in WSW 16.6 mph 22.6 mph 84% 0 in
14:50 52.9 °F 48.2 °F 30.3 in West 19.7 mph 22.6 mph 84% 0 in
14:55 53.1 °F 48.2 °F 30.3 in WSW 13 mph 26.4 mph 84% 0 in
15:00 53.1 °F 48.2 °F 30.2 in WSW 14.5 mph 26.4 mph 84% 0 in
15:05 53.1 °F 48.2 °F 30.2 in WSW 22.6 mph 25.9 mph 84% 0 in
15:10 52.9 °F 48.2 °F 30.2 in WSW 19.9 mph 30 mph 84% 0 in
15:15 52.7 °F 48.2 °F 30.3 in West 18.6 mph 30 mph 84% 0 in
15:20 52.7 °F 48.2 °F 30.3 in WSW 26.2 mph 26.2 mph 84% 0 in
15:25 52.7 °F 48.2 °F 30.3 in WSW 22.8 mph 26.2 mph 85% 0 in
15:30 52.7 °F 48.2 °F 30.3 in WSW 20.1 mph 24.2 mph 85% 0 in
15:35 52.9 °F 48.2 °F 30.3 in WSW 12.8 mph 29.1 mph 84% 0 in
15:40 52.9 °F 48.2 °F 30.3 in WSW 12.3 mph 29.3 mph 84% 0 in
15:45 52.9 °F 48.2 °F 30.3 in WSW 17.7 mph 29.3 mph 84% 0 in
15:50 52.7 °F 48.2 °F 30.3 in West 22.4 mph 26.8 mph 85% 0 in
15:55 52.7 °F 48.2 °F 30.3 in West 17.2 mph 26.8 mph 85% 0 in
16:00 52.5 °F 48.2 °F 30.2 in West 23 mph 30 mph 85% 0 in
16:05 52.5 °F 48.2 °F 30.2 in WSW 22.1 mph 30 mph 85% 0 in
16:10 52.5 °F 48.2 °F 30.2 in West 26.6 mph 26.8 mph 85% 0 in
16:15 52.5 °F 48.2 °F 30.3 in West 25.5 mph 27.5 mph 85% 0 in
16:20 52.3 °F 48.2 °F 30.3 in West 15.4 mph 27.5 mph 86% 0 in
16:25 52.3 °F 48.2 °F 30.3 in West 17.4 mph 26.2 mph 86% 0 in
16:30 52.2 °F 48.2 °F 30.2 in WSW 14.8 mph 23.5 mph 87% 0 in
16:35 52.2 °F 48.2 °F 30.2 in WSW 13.9 mph 25.5 mph 88% 0 in
16:40 52 °F 48.2 °F 30.2 in West 15.7 mph 25.5 mph 88% 0 in
16:45 52 °F 48.2 °F 30.3 in WSW 11 mph 23.5 mph 89% 0 in
16:50 51.6 °F 50 °F 30.3 in WSW 19.9 mph 23.5 mph 91% 0 in
16:55 51.6 °F 50 °F 30.3 in West 11 mph 22.8 mph 92% 0 in
17:00 51.4 °F 50 °F 30.3 in West 15.7 mph 22.8 mph 93% 0 in
17:05 51.3 °F 50 °F 30.3 in WSW 26.8 mph 26.8 mph 94% 0 in
17:10 51.3 °F 50 °F 30.3 in West 15.2 mph 26.8 mph 94% 0 in
17:16 51.3 °F 50 °F 30.3 in West 14.8 mph 26.8 mph 95% 0 in
17:21 51.3 °F 50 °F 30.3 in WSW 15.4 mph 23.9 mph 95% 0 in
17:26 51.3 °F 50 °F 30.3 in West 11 mph 22.6 mph 95% 0 in
17:31 51.4 °F 50 °F 30.3 in West 14.5 mph 22.6 mph 94% 0 in
17:36 51.4 °F 50 °F 30.3 in WSW 21.9 mph 21.9 mph 94% 0 in
17:41 51.6 °F 50 °F 30.3 in WSW 10.3 mph 23.7 mph 94% 0 in
17:46 51.6 °F 50 °F 30.3 in West 11 mph 23.7 mph 94% 0 in
17:51 51.6 °F 50 °F 30.3 in WNW 15.7 mph 22.8 mph 94% 0 in
17:56 51.6 °F 50 °F 30.3 in WSW 19.9 mph 24.2 mph 94% 0 in
18:01 51.8 °F 50 °F 30.3 in WSW 12.8 mph 24.2 mph 93% 0 in
18:06 51.6 °F 50 °F 30.3 in West 7.8 mph 24.2 mph 94% 0 in
18:11 51.6 °F 50 °F 30.3 in West 14.8 mph 19.7 mph 94% 0 in
18:16 51.6 °F 50 °F 30.3 in WSW 11 mph 19.7 mph 94% 0 in
18:21 51.6 °F 50 °F 30.3 in West 10.7 mph 19.2 mph 94% 0 in
18:26 51.6 °F 50 °F 30.3 in WSW 16.6 mph 19.5 mph 95% 0 in
18:31 51.6 °F 50 °F 30.3 in West 12.8 mph 19.5 mph 95% 0 in
18:36 51.6 °F 50 °F 30.3 in West 7.6 mph 19.5 mph 95% 0 in
18:41 51.6 °F 50 °F 30.3 in West 15.9 mph 19.5 mph 95% 0 in
18:46 51.6 °F 50 °F 30.3 in West 13 mph 18.1 mph 95% 0 in
18:51 51.6 °F 51.8 °F 30.3 in West 10.3 mph 18.1 mph 96% 0 in
18:56 51.6 °F 51.8 °F 30.3 in West 12.8 mph 17.4 mph 96% 0 in
19:01 51.6 °F 51.8 °F 30.3 in West 6 mph 17.4 mph 96% 0 in
19:06 51.6 °F 51.8 °F 30.3 in North 8.7 mph 17.2 mph 96% 0 in
19:11 51.6 °F 51.8 °F 30.3 in North 5.8 mph 8.7 mph 97% 0 in
19:16 50.9 °F 50 °F 30.3 in NW 2.7 mph 13.2 mph 94% 0.01 in
19:21 50.4 °F 48.2 °F 30.3 in NNW 3.1 mph 13.2 mph 93% 0.02 in
19:26 50 °F 48.2 °F 30.3 in NE 3.8 mph 8.7 mph 92% 0.02 in
19:31 49.8 °F 48.2 °F 30.3 in NNE 2.9 mph 8.7 mph 93% 0.02 in
19:36 49.6 °F 48.2 °F 30.3 in NW 2.5 mph 7.4 mph 93% 0.02 in
19:41 49.5 °F 48.2 °F 30.3 in NW 3.8 mph 7.4 mph 94% 0.02 in
19:46 49.5 °F 48.2 °F 30.3 in West 2.5 mph 7.2 mph 94% 0.02 in
19:51 49.5 °F 48.2 °F 30.3 in WNW 2.2 mph 9.6 mph 94% 0.02 in
19:56 49.3 °F 48.2 °F 30.3 in NNW 7.4 mph 9.6 mph 95% 0.02 in
20:01 49.3 °F 48.2 °F 30.3 in NW 6.3 mph 7.8 mph 95% 0.02 in
20:06 49.1 °F 48.2 °F 30.3 in West 4.9 mph 7.4 mph 95% 0.02 in
20:11 49.1 °F 48.2 °F 30.3 in West 2 mph 6.3 mph 95% 0.01 in
20:16 48.9 °F 48.2 °F 30.4 in WNW 3.4 mph 4 mph 95% 0.01 in
20:21 48.9 °F 48.2 °F 30.4 in WNW 4 mph 6.5 mph 95% 0 in
20:26 48.7 °F 48.2 °F 30.4 in WNW 1.1 mph 6.5 mph 95% 0 in
20:32 48.7 °F 48.2 °F 30.4 in Calm   7.6 mph 95% 0 in
20:37 48.7 °F 48.2 °F 30.4 in Calm   7.6 mph 95% 0 in
20:42 48.6 °F 48.2 °F 30.4 in NNW 0.9 mph 7.6 mph 95% 0 in
20:47 48.6 °F 48.2 °F 30.4 in WNW 2 mph 4.9 mph 95% 0 in
20:52 48.4 °F 48.2 °F 30.4 in Calm   4.9 mph 95% 0 in
20:57 48.4 °F 48.2 °F 30.4 in Calm   4.3 mph 95% 0 in
21:02 48.2 °F 48.2 °F 30.4 in Calm   4.7 mph 95% 0 in
21:07 48 °F 48.2 °F 30.4 in Calm   4.7 mph 95% 0 in
21:12 47.7 °F 46.4 °F 30.4 in Calm   4.3 mph 95% 0 in
21:17 47.5 °F 46.4 °F 30.4 in Calm   3.4 mph 95% 0 in
21:22 47.3 °F 46.4 °F 30.4 in WNW 3.8 mph 3.8 mph 95% 0 in
21:27 46.9 °F 46.4 °F 30.4 in Calm   3.8 mph 95% 0 in
21:32 46.8 °F 46.4 °F 30.4 in Calm   3.8 mph 95% 0 in
21:37 46.4 °F 46.4 °F 30.4 in West 2.9 mph 3.8 mph 95% 0 in
21:42 46 °F 44.6 °F 30.4 in Calm   3.8 mph 95% 0 in
21:47 45.9 °F 44.6 °F 30.4 in Calm   2.9 mph 95% 0 in
21:52 45.3 °F 44.6 °F 30.4 in Calm     95% 0 in
21:57 45.1 °F 44.6 °F 30.4 in Calm   3.4 mph 96% 0 in
22:02 45 °F 44.6 °F 30.4 in Calm   3.4 mph 96% 0 in
22:07 44.8 °F 44.6 °F 30.4 in Calm     96% 0 in
22:12 44.8 °F 44.6 °F 30.4 in Calm   2.9 mph 97% 0 in
22:17 44.6 °F 44.6 °F 30.4 in Calm   2.9 mph 97% 0 in
22:22 44.6 °F 44.6 °F 30.4 in Calm   1.3 mph 97% 0 in
22:27 44.2 °F 42.8 °F 30.4 in West 1.6 mph 2.2 mph 97% 0 in
22:32 44.1 °F 42.8 °F 30.4 in Calm   4 mph 97% 0 in
22:37 43.5 °F 42.8 °F 30.4 in Calm   4 mph 97% 0 in
22:42 43.2 °F 42.8 °F 30.4 in Calm     97% 0 in
22:47 43 °F 42.8 °F 30.4 in Calm     97% 0 in
22:52 42.8 °F 42.8 °F 30.4 in Calm   2.2 mph 97% 0 in
22:57 42.6 °F 42.8 °F 30.4 in Calm   2.5 mph 97% 0 in
23:03 42.4 °F 42.8 °F 30.4 in Calm   3.1 mph 97% 0 in
23:08 42.3 °F 42.8 °F 30.4 in Calm   3.1 mph 98% 0 in
23:13 42.3 °F 42.8 °F 30.4 in Calm     98% 0 in
23:18 42.1 °F 42.8 °F 30.4 in West 0.9 mph 3.1 mph 98% 0 in
23:23 41.9 °F 42.8 °F 30.4 in Calm   3.1 mph 98% 0 in
23:28 41.7 °F 42.8 °F 30.4 in Calm   1.3 mph 98% 0 in
23:33 41.5 °F 42.8 °F 30.4 in Calm     98% 0 in
23:38 41.4 °F 41 °F 30.4 in Calm     98% 0 in
23:43 40.6 °F 41 °F 30.4 in Calm   3.1 mph 98% 0 in
23:48 40.3 °F 39.2 °F 30.4 in Calm   3.1 mph 97% 0 in
23:53 40.1 °F 39.2 °F 30.4 in Calm     97% 0 in
23:58 39.9 °F 39.2 °F 30.4 in Calm     97% 0 in
Données Historique de Météo Turbie

Mise a jour : 20/05/2018 19:26:13
Généré par Cumulus 1.9.4 (1099)